Вернуться в каталог

STARLINK-32792

АктивенСвязьVLEO
NORAD 62504·PAYLOAD·🇺🇸 United States

Запущен Jan 6, 2025 с Cape Canaveral Space Force Station

Loading…

Ближайшие Пролёты (ближайшие 24 часа)

TLE

СвежийSource: CelesTrak SupGP

Эпоха: Sep 15, 2026, 03:11 UTC

1 62504C 25003T   26258.13312500  .00014833  00000+0  53712-3 0  2582
2 62504  43.0019 298.6644 0001439 265.8556 301.4837 15.27580227    15

Отслеживайте STARLINK-32792 в реальном времени с AllMySat

Download on the App Store